Location: Lombard
(41.8800°N, 88.0080°W)
Time: 23:35:57
(UTC-05:00)

A-11 Canister half - Pass Details

Date: 29 January 2023
Orbit: 1512 x 1687 km, 47.2° (Epoch: 20 March)

Event Time Altitude Azimuth Distance (km) Brightness Sun altitude
Rises 14:12:38 0° 265° (W) 4,778 12.1 23.4°
Reaches altitude 10° 14:15:49 10° 269° (W) 3,771 11.6 23.1°
Maximum altitude 14:25:17 66° 351° (N) 1,654 9.4 22.1°
Drops below altitude 10° 14:34:30 10° 73° (ENE) 3,678 10.6 21.1°
Sets 14:37:34 0° 77° (ENE) 4,655 11.1 20.7°
